GW5451 Weather Reports


time (UTC)temp
C
wind
direction
speed
KPH
gust
KPH
rain 1hr
cm
rain 24hr
cm
rain mn
cm
humidity
%
barometer
mb
20260510030046 10 205 0.0 0.0 0.00 0.00 0.43 61 1006.1
20260510024603 10 205 0.0 0.0 0.00 0.00 0.43 60 1006.2
20260510023103 10 205 0.0 0.0 0.00 0.00 0.43 59 1006.2
20260510021548 10 205 0.0 0.0 0.00 0.00 0.43 58 1006.1
20260510020104 11 205 0.0 0.0 0.00 0.00 0.43 57 1005.9
20260510014558 11 205 0.0 0.0 0.00 0.00 0.43 57 1005.8
20260510013047 11 205 0.0 0.0 0.00 0.00 0.43 57 1005.7
20260510011536 12 205 0.0 0.0 0.00 0.00 0.43 54 1005.5
20260510010033 12 205 0.0 0.0 0.00 0.00 0.43 53 1005.4
20260510004558 12 360 1.6 0.0 0.00 0.00 0.43 50 1005.3
20260510003100 13 360 1.6 0.0 0.00 0.00 0.43 47 1005.2
20260510001531 14 353 0.0 0.0 0.00 0.00 0.43 45 1005.0
20260510000042 15 354 0.0 0.0 0.00 0.00 0.43 42 1004.8
20260509234530 15 212 1.6 0.0 0.00 0.00 0.43 40 1004.7
20260509233053 16 227 1.6 0.0 0.00 0.00 0.43 38 1004.7
20260509231546 16 206 3.2 0.0 0.00 0.00 0.43 37 1004.5
20260509230032 16 215 3.2 0.0 0.00 0.00 0.43 36 1004.6
20260509224551 17 222 1.6 0.0 0.00 0.00 0.43 33 1004.5
20260509223054 17 226 3.2 0.0 0.00 0.00 0.43 31 1004.7
20260509221547 17 229 3.2 0.0 0.00 0.00 0.43 32 1004.5
20260509220053 17 246 3.2 0.0 0.00 0.00 0.43 34 1004.7
20260509214609 16 178 3.2 0.0 0.00 0.00 0.43 40 1004.8
20260509213106 15 322 1.6 0.0 0.00 0.00 0.43 46 1005.0
20260509211611 15 322 0.0 0.0 0.00 0.00 0.43 46 1005.3
20260509210048 15 322 3.2 0.0 0.00 0.00 0.43 46 1005.3
20260509204552 15 322 0.0 0.0 0.00 0.00 0.43 47 1005.2
20260509203040 14 322 0.0 0.0 0.00 0.00 0.43 47 1005.2
20260509201601 14 322 0.0 0.0 0.00 0.00 0.43 49 1005.4
20260509194603 15 326 3.2 0.0 0.00 0.00 0.43 48 1005.8
20260509193035 14 200 3.2 0.0 0.00 0.00 0.43 53 1006.0
20260509191544 14 208 3.2 0.0 0.00 0.00 0.43 56 1006.2
20260509190037 13 181 4.8 0.0 0.00 0.00 0.43 58 1006.3
20260509184559 13 161 3.2 0.0 0.00 0.00 0.43 61 1006.2
20260509183033 12 186 3.2 0.0 0.00 0.00 0.43 61 1006.4
20260509181534 12 191 3.2 0.0 0.00 0.00 0.43 61 1006.6
20260509180032 12 202 1.6 0.0 0.00 0.00 0.43 61 1006.8
20260509174531 12 202 1.6 0.0 0.00 0.00 0.43 60 1006.8
20260509173039 12 202 1.6 0.0 0.00 0.00 0.43 60 1006.9
20260509171542 12 202 1.6 0.0 0.00 0.00 0.41 60 1006.8
20260509170112 12 202 0.0 0.0 0.00 0.00 0.38 59 1006.9
20260509164531 12 202 0.0 0.0 0.00 0.00 0.38 58 1006.8
20260509163052 12 202 3.2 0.0 0.00 0.00 0.33 57 1006.7
20260509161533 12 202 0.0 0.0 0.00 0.00 0.25 55 1007.0
20260509160117 12 202 1.6 0.0 0.00 0.00 0.18 54 1007.7
20260509154651 12 202 3.2 0.0 0.00 0.00 0.10 52 1007.8
20260509153047 12 200 3.2 0.0 0.00 0.00 0.08 52 1007.8
20260509151546 12 202 3.2 0.0 0.00 0.00 0.05 49 1007.7
20260509150118 13 161 1.6 0.0 0.00 0.00 0.03 51 1007.7
20260509144554 13 37 1.6 0.0 0.00 0.00 0.00 51 1007.5
20260509143046 12 37 0.0 0.0 0.00 0.00 0.00 51 1007.4
20260509141531 12 37 1.6 0.0 0.00 0.00 0.00 53 1007.3
20260509140032 12 37 3.2 0.0 0.00 0.00 0.00 53 1006.8
20260509134608 12 55 1.6 0.0 0.00 0.00 0.00 53 1006.8
20260509133104 12 56 0.0 0.0 0.00 0.00 0.00 55 1006.8
20260509131552 12 56 0.0 0.0 0.00 0.00 0.00 53 1006.9
20260509130052 12 56 0.0 0.0 0.00 0.00 0.00 54 1006.9
20260509124539 11 56 0.0 0.0 0.00 0.00 0.00 55 1007.1
20260509123037 11 56 0.0 0.0 0.00 0.00 0.00 54 1006.6
20260509121532 11 56 0.0 0.0 0.00 0.00 0.00 54 1006.7
20260509120108 11 56 1.6 0.0 0.00 0.00 0.00 55 1006.5
20260509114554 10 56 0.0 0.0 0.00 0.00 0.00 55 1006.7
20260509113041 10 56 0.0 0.0 0.00 0.00 0.00 55 1006.7
20260509111546 10 56 0.0 0.0 0.00 0.00 0.00 55 1006.6
20260509110107 10 56 0.0 0.0 0.00 0.00 0.00 54 1006.5
20260509104545 10 56 0.0 0.0 0.00 0.00 0.00 54 1006.4
20260509103030 9 56 0.0 0.0 0.00 0.00 0.00 55 1006.4
20260509101551 9 56 0.0 0.0 0.00 0.00 0.00 55 1005.9
20260509100043 9 56 0.0 0.0 0.00 0.00 0.00 55 1006.2
20260509094555 9 56 0.0 0.0 0.00 0.00 0.00 54 1006.2
20260509093031 9 56 0.0 0.0 0.00 0.00 0.00 54 1006.2
20260509091544 9 56 0.0 0.0 0.00 0.00 0.00 53 1006.3
20260509090030 9 56 0.0 0.0 0.00 0.00 0.00 52 1006.4
20260509084559 9 56 0.0 0.0 0.00 0.00 0.00 51 1006.6
20260509083046 9 56 0.0 0.0 0.00 0.00 0.00 50 1006.7
20260509081540 8 56 0.0 0.0 0.00 0.00 0.00 48 1006.8
20260509080052 9 56 0.0 0.0 0.00 0.00 0.00 47 1006.7
20260509074543 9 56 0.0 0.0 0.00 0.00 0.00 46 1006.9
20260509073045 10 56 0.0 0.0 0.00 0.00 0.00 45 1007.0
20260509071539 10 56 1.6 0.0 0.00 0.00 0.00 46 1007.0
20260509070104 10 56 0.0 0.0 0.00 0.00 0.00 47 1007.0
20260509064530 10 56 0.0 0.0 0.00 0.00 0.00 45 1006.9
20260509063041 11 56 0.0 0.0 0.00 0.00 0.00 45 1007.1
20260509061535 11 56 0.0 0.0 0.00 0.00 0.00 45 1007.3
20260509060054 11 56 1.6 0.0 0.00 0.00 0.00 44 1007.6
20260509054605 11 56 0.0 0.0 0.00 0.00 0.00 43 1007.4
20260509053034 11 56 0.0 0.0 0.00 0.00 0.00 43 1007.7
20260509051556 11 56 0.0 0.0 0.00 0.00 0.00 43 1007.8
20260509050052 11 56 0.0 0.0 0.00 0.00 0.00 41 1007.6
20260509044605 11 56 0.0 0.0 0.00 0.00 0.00 41 1007.7
20260509043034 12 55 1.6 0.0 0.00 0.00 0.00 41 1007.9
20260509041531 12 168 1.6 0.0 0.00 0.00 0.00 40 1007.8
20260509040108 12 175 0.0 0.0 0.00 0.00 0.00 38 1008.2
20260509034536 12 174 0.0 0.0 0.00 0.00 0.00 36 1008.1
20260509033051 12 179 1.6 0.0 0.00 0.00 0.00 33 1008.4
20260509031552 12 162 8.0 0.0 0.00 0.00 0.00 34 1008.5